Time,TemperatureF,DewpointF,PressureIn,WindDirection,WindDirectionDegrees,WindSpeedMPH,WindSpeedGustMPH,Humidity,HourlyPrecipIn,Conditions,Clouds,dailyrainin,SoftwareType,DateUTC
2013-01-05 00:11:00,23.9,19.0,30.29,North,0,0.0,-999.0,81,0.00,,,0.00,open2300 v1.10,2013-01-05 05:11:00,
2013-01-05 00:21:00,23.5,18.6,30.28,North,0,0.0,-999.0,81,0.00,,,0.00,open2300 v1.10,2013-01-05 05:21:00,
2013-01-05 00:31:00,23.4,18.4,30.28,North,0,0.0,-999.0,81,0.00,,,0.00,open2300 v1.10,2013-01-05 05:31:00,
2013-01-05 00:41:00,23.2,18.2,30.28,North,0,0.0,-999.0,81,0.00,,,0.00,open2300 v1.10,2013-01-05 05:41:00,
2013-01-05 00:51:00,22.8,17.9,30.28,North,0,0.0,-999.0,81,0.00,,,0.00,open2300 v1.10,2013-01-05 05:51:00,
2013-01-05 01:01:00,22.5,17.5,30.28,North,0,0.0,-999.0,81,0.00,,,0.00,open2300 v1.10,2013-01-05 06:01:00,
2013-01-05 01:11:00,22.1,17.4,30.29,North,0,0.0,-999.0,82,0.00,,,0.00,open2300 v1.10,2013-01-05 06:11:00,
2013-01-05 01:21:00,22.1,17.4,30.28,NNE,22,1.3,-999.0,82,0.00,,,0.00,open2300 v1.10,2013-01-05 06:21:00,
2013-01-05 01:31:00,21.9,17.2,30.28,North,0,0.0,-999.0,82,0.00,,,0.00,open2300 v1.10,2013-01-05 06:31:00,
2013-01-05 01:41:00,21.9,17.2,30.28,NNE,22,0.0,-999.0,82,0.00,,,0.00,open2300 v1.10,2013-01-05 06:41:00,
2013-01-05 01:51:00,21.9,17.2,30.28,NNE,22,0.0,-999.0,82,0.00,,,0.00,open2300 v1.10,2013-01-05 06:51:00,
2013-01-05 02:01:00,21.9,17.5,30.28,NNE,22,1.3,-999.0,83,0.00,,,0.00,open2300 v1.10,2013-01-05 07:01:00,
2013-01-05 02:11:00,21.9,17.5,30.28,NNE,22,0.0,-999.0,83,0.00,,,0.00,open2300 v1.10,2013-01-05 07:11:00,
2013-01-05 02:21:00,21.9,17.5,30.28,North,0,0.0,-999.0,83,0.00,,,0.00,open2300 v1.10,2013-01-05 07:21:00,
2013-01-05 02:31:00,22.1,17.7,30.28,North,0,0.0,-999.0,83,0.00,,,0.00,open2300 v1.10,2013-01-05 07:31:00,
2013-01-05 02:41:00,22.3,17.9,30.29,NNE,22,0.0,-999.0,83,0.00,,,0.00,open2300 v1.10,2013-01-05 07:41:00,
2013-01-05 02:51:00,22.3,17.9,30.29,North,0,0.0,-999.0,83,0.00,,,0.00,open2300 v1.10,2013-01-05 07:51:00,
2013-01-05 03:01:00,22.1,17.7,30.28,NNE,22,0.0,-999.0,83,0.00,,,0.00,open2300 v1.10,2013-01-05 08:01:00,
2013-01-05 03:11:00,21.9,17.5,30.29,NNE,22,0.0,-999.0,83,0.00,,,0.00,open2300 v1.10,2013-01-05 08:11:00,
2013-01-05 03:21:00,21.9,17.5,30.29,NNE,22,0.0,-999.0,83,0.00,,,0.00,open2300 v1.10,2013-01-05 08:21:00,
2013-01-05 03:31:00,21.7,17.3,30.29,NNE,22,0.0,-999.0,83,0.00,,,0.00,open2300 v1.10,2013-01-05 08:31:00,
2013-01-05 03:41:00,21.6,17.1,30.29,NNE,22,0.0,-999.0,83,0.00,,,0.00,open2300 v1.10,2013-01-05 08:41:00,
2013-01-05 03:51:00,21.6,17.1,30.28,NNE,22,0.0,-999.0,83,0.00,,,0.00,open2300 v1.10,2013-01-05 08:51:00,
2013-01-05 04:01:00,21.6,17.1,30.28,NNE,22,0.0,-999.0,83,0.00,,,0.00,open2300 v1.10,2013-01-05 09:01:00,
2013-01-05 04:11:00,21.4,17.0,30.28,NNE,22,0.0,-999.0,83,0.00,,,0.00,open2300 v1.10,2013-01-05 09:11:00,
2013-01-05 04:21:00,21.4,17.0,30.27,NNE,22,0.0,-999.0,83,0.00,,,0.00,open2300 v1.10,2013-01-05 09:21:00,
2013-01-05 04:31:00,21.0,16.9,30.27,NNE,22,0.0,-999.0,84,0.00,,,0.00,open2300 v1.10,2013-01-05 09:31:00,
2013-01-05 04:41:00,21.0,16.9,30.28,NNE,22,0.0,-999.0,84,0.00,,,0.00,open2300 v1.10,2013-01-05 09:41:00,
2013-01-05 04:51:00,21.0,16.9,30.27,NNE,22,0.0,-999.0,84,0.00,,,0.00,open2300 v1.10,2013-01-05 09:51:00,
2013-01-05 05:01:00,21.0,16.9,30.28,NNE,22,0.0,-999.0,84,0.00,,,0.00,open2300 v1.10,2013-01-05 10:01:00,
2013-01-05 05:11:00,21.4,17.2,30.28,NNE,22,0.0,-999.0,84,0.00,,,0.00,open2300 v1.10,2013-01-05 10:11:00,
2013-01-05 05:21:00,21.4,17.2,30.27,NNE,22,0.0,-999.0,84,0.00,,,0.00,open2300 v1.10,2013-01-05 10:21:00,
2013-01-05 05:31:00,21.7,17.6,30.27,NNE,22,0.0,-999.0,84,0.00,,,0.00,open2300 v1.10,2013-01-05 10:31:00,
2013-01-05 05:41:00,21.4,17.2,30.27,NNE,22,0.0,-999.0,84,0.00,,,0.00,open2300 v1.10,2013-01-05 10:41:00,
2013-01-05 05:51:00,20.5,16.1,30.26,NNE,22,0.0,-999.0,83,0.00,,,0.00,open2300 v1.10,2013-01-05 10:51:00,
2013-01-05 06:01:00,19.4,15.0,30.26,NNE,22,0.0,-999.0,83,0.00,,,0.00,open2300 v1.10,2013-01-05 11:01:00,
2013-01-05 06:11:00,18.5,14.4,30.26,NNE,22,0.0,-999.0,84,0.00,,,0.00,open2300 v1.10,2013-01-05 11:11:00,
2013-01-05 06:21:00,18.1,14.0,30.26,NNE,22,0.0,-999.0,84,0.00,,,0.00,open2300 v1.10,2013-01-05 11:21:00,
2013-01-05 06:31:00,17.8,13.6,30.26,NNE,22,0.0,-999.0,84,0.00,,,0.00,open2300 v1.10,2013-01-05 11:31:00,
2013-01-05 06:41:00,17.4,13.3,30.26,NNE,22,0.0,-999.0,84,0.00,,,0.00,open2300 v1.10,2013-01-05 11:41:00,
2013-01-05 06:51:00,17.4,13.3,30.27,NNE,22,0.0,-999.0,84,0.00,,,0.00,open2300 v1.10,2013-01-05 11:51:00,
2013-01-05 07:01:00,17.2,13.1,30.27,NNE,22,0.0,-999.0,84,0.00,,,0.00,open2300 v1.10,2013-01-05 12:01:00,
2013-01-05 07:11:00,17.4,13.3,30.27,NNE,22,0.0,-999.0,84,0.00,,,0.00,open2300 v1.10,2013-01-05 12:11:00,
2013-01-05 07:21:00,17.8,13.6,30.26,NNE,22,0.0,-999.0,84,0.00,,,0.00,open2300 v1.10,2013-01-05 12:21:00,
2013-01-05 07:31:00,18.0,13.8,30.27,NNE,22,0.0,-999.0,84,0.00,,,0.00,open2300 v1.10,2013-01-05 12:31:00,
2013-01-05 07:41:00,18.3,14.2,30.26,NNE,22,0.0,-999.0,84,0.00,,,0.00,open2300 v1.10,2013-01-05 12:41:00,
2013-01-05 07:51:00,19.0,15.2,30.26,NNE,22,0.0,-999.0,85,0.00,,,0.00,open2300 v1.10,2013-01-05 12:51:00,
2013-01-05 08:01:00,19.2,15.4,30.27,NNE,22,0.0,-999.0,85,0.00,,,0.00,open2300 v1.10,2013-01-05 13:01:00,
2013-01-05 08:11:00,19.9,16.1,30.26,NNE,22,0.0,-999.0,85,0.00,,,0.00,open2300 v1.10,2013-01-05 13:11:00,
2013-01-05 08:21:00,19.8,15.9,30.26,NNE,22,0.0,-999.0,85,0.00,,,0.00,open2300 v1.10,2013-01-05 13:21:00,
2013-01-05 08:31:00,19.2,15.4,30.25,NNE,22,0.0,-999.0,85,0.00,,,0.00,open2300 v1.10,2013-01-05 13:31:00,
2013-01-05 08:41:00,18.9,15.0,30.25,NNE,22,0.0,-999.0,85,0.00,,,0.00,open2300 v1.10,2013-01-05 13:41:00,
2013-01-05 08:51:00,18.9,15.0,30.26,NNE,22,0.0,-999.0,85,0.00,,,0.00,open2300 v1.10,2013-01-05 13:51:00,
2013-01-05 09:01:00,19.0,15.4,30.26,NNE,22,1.6,-999.0,86,0.00,,,0.00,open2300 v1.10,2013-01-05 14:01:00,
2013-01-05 09:11:00,20.1,16.5,30.26,NNE,22,0.0,-999.0,86,0.00,,,0.00,open2300 v1.10,2013-01-05 14:11:00,
2013-01-05 09:21:00,21.0,17.4,30.26,NNE,22,0.0,-999.0,86,0.00,,,0.00,open2300 v1.10,2013-01-05 14:21:00,
2013-01-05 09:31:00,21.4,17.8,30.26,NNE,22,0.0,-999.0,86,0.00,,,0.00,open2300 v1.10,2013-01-05 14:31:00,
2013-01-05 09:41:00,22.3,18.7,30.26,NNE,22,0.0,-999.0,86,0.00,,,0.00,open2300 v1.10,2013-01-05 14:41:00,
2013-01-05 09:51:00,23.4,20.0,30.26,NNE,22,0.0,-999.0,87,0.00,,,0.00,open2300 v1.10,2013-01-05 14:51:00,
2013-01-05 10:01:00,24.6,21.3,30.25,NNE,22,1.8,-999.0,87,0.00,,,0.00,open2300 v1.10,2013-01-05 15:01:00,
2013-01-05 10:11:00,26.2,22.6,30.26,NNE,22,0.0,-999.0,86,0.00,,,0.00,open2300 v1.10,2013-01-05 15:11:00,
2013-01-05 10:21:00,27.1,22.9,30.26,NNE,22,0.0,-999.0,84,0.00,,,0.00,open2300 v1.10,2013-01-05 15:21:00,
2013-01-05 10:31:00,28.0,23.2,30.26,NNE,22,0.0,-999.0,82,0.00,,,0.00,open2300 v1.10,2013-01-05 15:31:00,
2013-01-05 10:41:00,28.2,22.8,30.26,NNE,22,0.0,-999.0,80,0.00,,,0.00,open2300 v1.10,2013-01-05 15:41:00,
2013-01-05 10:51:00,28.4,23.0,30.26,NNE,22,0.0,-999.0,80,0.00,,,0.00,open2300 v1.10,2013-01-05 15:51:00,
2013-01-05 11:01:00,28.8,23.0,30.26,North,0,0.0,-999.0,79,0.00,,,0.00,open2300 v1.10,2013-01-05 16:01:00,
2013-01-05 11:11:00,29.1,22.8,30.26,NNE,22,0.0,-999.0,77,0.00,,,0.00,open2300 v1.10,2013-01-05 16:11:00,
2013-01-05 11:21:00,29.8,23.5,30.26,NNE,22,0.9,-999.0,77,0.00,,,0.00,open2300 v1.10,2013-01-05 16:21:00,
2013-01-05 11:31:00,29.8,23.1,30.25,North,0,4.0,-999.0,76,0.00,,,0.00,open2300 v1.10,2013-01-05 16:31:00,
2013-01-05 11:41:00,30.0,23.3,30.24,NNE,22,0.0,-999.0,76,0.00,,,0.00,open2300 v1.10,2013-01-05 16:41:00,
2013-01-05 11:51:00,30.6,23.9,30.23,NNE,22,7.4,-999.0,76,0.00,,,0.00,open2300 v1.10,2013-01-05 16:51:00,
2013-01-05 12:01:00,31.1,24.1,30.22,North,0,3.6,-999.0,75,0.00,,,0.00,open2300 v1.10,2013-01-05 17:01:00,
2013-01-05 12:11:00,31.6,24.6,30.22,NNE,22,0.0,-999.0,75,0.00,,,0.00,open2300 v1.10,2013-01-05 17:11:00,
2013-01-05 12:21:00,32.2,24.8,30.22,North,0,0.0,-999.0,74,0.00,,,0.00,open2300 v1.10,2013-01-05 17:21:00,
2013-01-05 12:31:00,32.5,25.1,30.21,NNE,22,2.0,-999.0,74,0.00,,,0.00,open2300 v1.10,2013-01-05 17:31:00,
2013-01-05 12:41:00,32.7,25.3,30.21,NNE,22,2.0,-999.0,74,0.00,,,0.00,open2300 v1.10,2013-01-05 17:41:00,
2013-01-05 12:51:00,32.9,25.1,30.20,NNE,22,0.0,-999.0,73,0.00,,,0.00,open2300 v1.10,2013-01-05 17:51:00,
2013-01-05 13:01:00,33.4,25.3,30.20,North,0,5.1,-999.0,72,0.00,,,0.00,open2300 v1.10,2013-01-05 18:01:00,
2013-01-05 13:11:00,34.3,25.8,30.20,NNE,22,0.0,-999.0,71,0.00,,,0.00,open2300 v1.10,2013-01-05 18:11:00,
2013-01-05 13:21:00,34.0,25.2,30.18,NNE,22,3.6,-999.0,70,0.00,,,0.00,open2300 v1.10,2013-01-05 18:21:00,
2013-01-05 13:31:00,33.6,25.1,30.18,North,0,0.0,-999.0,71,0.00,,,0.00,open2300 v1.10,2013-01-05 18:31:00,
2013-01-05 13:41:00,33.4,25.0,30.17,NNE,22,2.7,-999.0,71,0.00,,,0.00,open2300 v1.10,2013-01-05 18:41:00,
2013-01-05 13:51:00,33.6,25.5,30.17,NNE,22,11.4,-999.0,72,0.00,,,0.00,open2300 v1.10,2013-01-05 18:51:00,
2013-01-05 14:01:00,33.6,25.5,30.17,NNE,22,0.0,-999.0,72,0.00,,,0.00,open2300 v1.10,2013-01-05 19:01:00,
2013-01-05 14:11:00,33.6,25.5,30.16,NNE,22,2.5,-999.0,72,0.00,,,0.00,open2300 v1.10,2013-01-05 19:11:00,
2013-01-05 14:21:00,33.6,25.5,30.16,NNE,22,0.0,-999.0,72,0.00,,,0.00,open2300 v1.10,2013-01-05 19:21:00,
2013-01-05 14:31:00,33.6,25.5,30.16,NNE,22,2.5,-999.0,72,0.00,,,0.00,open2300 v1.10,2013-01-05 19:31:00,
2013-01-05 14:41:00,33.6,25.8,30.17,NNE,22,4.7,-999.0,73,0.00,,,0.00,open2300 v1.10,2013-01-05 19:41:00,
2013-01-05 14:51:00,33.6,25.8,30.17,NNE,22,6.0,-999.0,73,0.00,,,0.00,open2300 v1.10,2013-01-05 19:51:00,
2013-01-05 15:01:00,33.3,26.1,30.17,NNE,22,1.6,-999.0,75,0.00,,,0.00,open2300 v1.10,2013-01-05 20:01:00,
2013-01-05 15:11:00,33.1,26.3,30.17,NNE,22,0.0,-999.0,76,0.00,,,0.00,open2300 v1.10,2013-01-05 20:11:00,
2013-01-05 15:21:00,32.9,26.8,30.17,NNE,22,0.0,-999.0,78,0.00,,,0.00,open2300 v1.10,2013-01-05 20:21:00,
2013-01-05 15:31:00,32.7,26.9,30.17,NNE,22,0.0,-999.0,79,0.00,,,0.00,open2300 v1.10,2013-01-05 20:31:00,
2013-01-05 15:41:00,32.7,27.2,30.16,NNE,22,0.0,-999.0,80,0.00,,,0.00,open2300 v1.10,2013-01-05 20:41:00,
2013-01-05 15:51:00,32.5,27.4,30.15,North,0,0.0,-999.0,81,0.00,,,0.00,open2300 v1.10,2013-01-05 20:51:00,
2013-01-05 16:01:00,32.5,27.7,30.15,NNE,22,0.0,-999.0,82,0.00,,,0.00,open2300 v1.10,2013-01-05 21:01:00,
2013-01-05 16:11:00,32.5,27.7,30.15,NNE,22,0.0,-999.0,82,0.00,,,0.00,open2300 v1.10,2013-01-05 21:11:00,
2013-01-05 16:21:00,32.5,28.0,30.15,NNE,22,4.2,-999.0,83,0.00,,,0.00,open2300 v1.10,2013-01-05 21:21:00,
2013-01-05 16:31:00,32.5,28.0,30.15,NNE,22,0.0,-999.0,83,0.00,,,0.00,open2300 v1.10,2013-01-05 21:31:00,
2013-01-05 16:41:00,32.7,28.4,30.15,NNE,22,0.0,-999.0,84,0.00,,,0.00,open2300 v1.10,2013-01-05 21:41:00,
2013-01-05 16:51:00,32.5,28.2,30.14,NNE,22,6.9,-999.0,84,0.00,,,0.00,open2300 v1.10,2013-01-05 21:51:00,
2013-01-05 17:01:00,32.5,28.2,30.14,North,0,0.0,-999.0,84,0.00,,,0.00,open2300 v1.10,2013-01-05 22:01:00,
2013-01-05 17:11:00,32.5,28.2,30.13,NNE,22,0.0,-999.0,84,0.00,,,0.00,open2300 v1.10,2013-01-05 22:11:00,
2013-01-05 17:21:00,32.4,28.1,30.13,NNE,22,0.0,-999.0,84,0.00,,,0.00,open2300 v1.10,2013-01-05 22:21:00,
2013-01-05 17:31:00,32.4,28.1,30.13,NNE,22,0.0,-999.0,84,0.00,,,0.00,open2300 v1.10,2013-01-05 22:31:00,
2013-01-05 17:41:00,32.2,27.9,30.13,NNE,22,2.9,-999.0,84,0.00,,,0.00,open2300 v1.10,2013-01-05 22:41:00,
2013-01-05 17:51:00,32.2,28.2,30.13,NNE,22,0.0,-999.0,85,0.00,,,0.00,open2300 v1.10,2013-01-05 22:51:00,
2013-01-05 18:01:00,32.2,28.2,30.12,NNE,22,0.0,-999.0,85,0.00,,,0.00,open2300 v1.10,2013-01-05 23:01:00,
2013-01-05 18:11:00,31.8,27.9,30.12,North,0,1.6,-999.0,85,0.00,,,0.00,open2300 v1.10,2013-01-05 23:11:00,
2013-01-05 18:21:00,31.8,27.9,30.13,NNE,22,2.9,-999.0,85,0.00,,,0.00,open2300 v1.10,2013-01-05 23:21:00,
2013-01-05 18:31:00,31.8,27.9,30.12,NNE,22,2.5,-999.0,85,0.00,,,0.00,open2300 v1.10,2013-01-05 23:31:00,
2013-01-05 18:41:00,31.8,27.9,30.13,NNE,22,0.0,-999.0,85,0.00,,,0.00,open2300 v1.10,2013-01-05 23:41:00,
2013-01-05 18:51:00,31.6,27.4,30.12,NNE,22,0.0,-999.0,84,0.00,,,0.00,open2300 v1.10,2013-01-05 23:51:00,
2013-01-05 19:01:00,31.6,27.4,30.12,NNE,22,0.0,-999.0,84,0.00,,,0.00,open2300 v1.10,2013-01-06 00:01:00,
2013-01-05 19:11:00,31.6,27.4,30.12,NNE,22,0.0,-999.0,84,0.00,,,0.00,open2300 v1.10,2013-01-06 00:11:00,
2013-01-05 19:21:00,31.8,27.6,30.12,North,0,4.7,-999.0,84,0.00,,,0.00,open2300 v1.10,2013-01-06 00:21:00,
2013-01-05 19:31:00,32.2,27.9,30.13,NNE,22,0.0,-999.0,84,0.00,,,0.00,open2300 v1.10,2013-01-06 00:31:00,
2013-01-05 19:41:00,32.2,27.6,30.12,NNE,22,5.6,-999.0,83,0.00,,,0.00,open2300 v1.10,2013-01-06 00:41:00,
2013-01-05 19:51:00,32.4,27.5,30.12,North,0,4.7,-999.0,82,0.00,,,0.00,open2300 v1.10,2013-01-06 00:51:00,
2013-01-05 20:01:00,32.4,27.5,30.13,NNE,22,0.0,-999.0,82,0.00,,,0.00,open2300 v1.10,2013-01-06 01:01:00,
2013-01-05 20:11:00,32.5,27.4,30.13,NNE,22,5.8,-999.0,81,0.00,,,0.00,open2300 v1.10,2013-01-06 01:11:00,
2013-01-05 20:21:00,32.5,27.1,30.13,NNE,22,3.4,-999.0,80,0.00,,,0.00,open2300 v1.10,2013-01-06 01:21:00,
2013-01-05 20:31:00,32.7,27.2,30.13,North,0,7.6,-999.0,80,0.00,,,0.00,open2300 v1.10,2013-01-06 01:31:00,
2013-01-05 20:41:00,32.7,26.9,30.13,NNE,22,0.0,-999.0,79,0.00,,,0.00,open2300 v1.10,2013-01-06 01:41:00,
2013-01-05 20:51:00,32.7,26.9,30.12,NNE,22,2.9,-999.0,79,0.00,,,0.00,open2300 v1.10,2013-01-06 01:51:00,
2013-01-05 21:01:00,32.9,27.1,30.11,NNE,22,0.0,-999.0,79,0.00,,,0.00,open2300 v1.10,2013-01-06 02:01:00,
2013-01-05 21:11:00,33.3,27.4,30.11,NNE,22,6.0,-999.0,79,0.00,,,0.00,open2300 v1.10,2013-01-06 02:11:00,
2013-01-05 21:21:00,33.4,27.6,30.11,NNE,22,0.0,-999.0,79,0.00,,,0.00,open2300 v1.10,2013-01-06 02:21:00,
2013-01-05 21:31:00,33.6,27.4,30.11,North,0,2.7,-999.0,78,0.00,,,0.00,open2300 v1.10,2013-01-06 02:31:00,
2013-01-05 21:41:00,33.8,27.9,30.10,North,0,10.5,-999.0,79,0.00,,,0.00,open2300 v1.10,2013-01-06 02:41:00,
2013-01-05 21:51:00,34.0,28.1,30.10,North,0,3.8,-999.0,79,0.00,,,0.00,open2300 v1.10,2013-01-06 02:51:00,
2013-01-05 22:01:00,34.2,28.3,30.10,NNE,22,7.8,-999.0,79,0.00,,,0.00,open2300 v1.10,2013-01-06 03:01:00,
2013-01-05 22:11:00,34.3,28.8,30.10,North,0,0.0,-999.0,80,0.00,,,0.00,open2300 v1.10,2013-01-06 03:11:00,
2013-01-05 22:21:00,34.3,28.8,30.10,NNE,22,8.3,-999.0,80,0.00,,,0.00,open2300 v1.10,2013-01-06 03:21:00,
2013-01-05 22:31:00,34.3,28.8,30.09,NNE,22,9.6,-999.0,80,0.00,,,0.00,open2300 v1.10,2013-01-06 03:31:00,
2013-01-05 22:41:00,34.3,28.8,30.09,North,0,7.8,-999.0,80,0.00,,,0.00,open2300 v1.10,2013-01-06 03:41:00,
2013-01-05 22:51:00,34.3,28.8,30.09,North,0,6.9,-999.0,80,0.00,,,0.00,open2300 v1.10,2013-01-06 03:51:00,
2013-01-05 23:01:00,34.3,28.8,30.08,North,0,3.6,-999.0,80,0.00,,,0.00,open2300 v1.10,2013-01-06 04:01:00,
2013-01-05 23:11:00,34.3,29.0,30.09,NNE,22,2.5,-999.0,81,0.00,,,0.00,open2300 v1.10,2013-01-06 04:11:00,
2013-01-05 23:21:00,34.3,29.0,30.08,NNE,22,8.7,-999.0,81,0.00,,,0.00,open2300 v1.10,2013-01-06 04:21:00,
2013-01-05 23:31:00,34.3,29.0,30.08,NNE,22,5.8,-999.0,81,0.00,,,0.00,open2300 v1.10,2013-01-06 04:31:00,
2013-01-05 23:41:00,34.3,29.0,30.08,North,0,0.0,-999.0,81,0.00,,,0.00,open2300 v1.10,2013-01-06 04:41:00,
2013-01-05 23:51:00,34.3,29.0,30.07,North,0,0.0,-999.0,81,0.00,,,0.00,open2300 v1.10,2013-01-06 04:51:00,